Weather History for Raton, NM

Change the Weather History Date:

Wednesday, October 9, 2013

  Actual Average (KTAD) Record (KTAD)
Temperature  
Mean Temperature 54 °F 55 °F  
Max Temperature 75 °F 71 °F 86 °F (1950)
Min Temperature 36 °F 39 °F 19 °F (1970)
Degree Days  
Heating Degree Days 10 10  
Month to date heating degree days 81  
Since 1 July heating degree days 191  
Cooling Degree Days 0 0  
Month to date cooling degree days 0  
Year to date cooling degree days 716  
Growing Degree Days 4 (Base 50)    
Moisture  
Dew Point 27 °F    
Average Humidity 37    
Maximum Humidity 73    
Minimum Humidity 16    
Precipitation  
Precipitation 0.00 in 0.02 in 0.71 in (2014)
Month to date precipitation 0.23  
Year to date precipitation 11.93  
Sea Level Pressure  
Sea Level Pressure 29.79 in    
Wind  
Wind Speed 9 mph (SSW)    
Max Wind Speed 26 mph    
Max Gust Speed 32 mph    
Visibility 10 miles    
Events      
T = Trace of Precipitation, MM = Missing Value Source: NWS Daily Summary

Daily Weather History Graph

Daily Weather History Graph

Search for Another Location

Airport:

Trip Planner

Search our weather history database for the weather conditions in past years. The results will help you decide how hot, cold, wet, or windy it might be!

Date:

Astronomy

Oct. 09, 2013 Rise Set
Actual Time 7:00 AM MDT 6:29 PM MDT
Civil Twilight 6:34 AM MDT 6:55 PM MDT
Nautical Twilight 6:04 AM MDT 7:25 PM MDT
Astronomical Twilight 5:34 AM MDT 7:55 PM MDT
Moon 11:52 AM MDT (10/9) 10:12 PM MDT (10/9)
Length of Visible Light 12h 20m
Length of Day
11h 29m
Waxing Crescent, 26% of the Moon is Illuminated
Oct 9
Waxing Crescent
Oct 11
First Quarter
Oct 18
Full
Oct 26
Last Quarter
Nov 3
New

Hourly Weather History & Observations

Time (MDT) Temp. Windchill Dew Point Humidity Pressure Visibility Wind Dir Wind Speed Gust Speed Precip Events Conditions
12:53 AM 46.0 °F 42.5 °F 27.0 °F 47% 29.76 in 10.0 mi North 6.9 mph - N/A   Clear
1:53 AM 44.1 °F 41.5 °F 27.0 °F 51% 29.75 in 10.0 mi North 4.6 mph - N/A   Clear
2:53 AM 44.1 °F 40.1 °F 28.0 °F 53% 29.73 in 10.0 mi NNW 6.9 mph - N/A   Clear
3:53 AM 44.1 °F 40.1 °F 28.0 °F 53% 29.74 in 10.0 mi NNW 6.9 mph - N/A   Clear
4:53 AM 39.9 °F 35.1 °F 28.0 °F 63% 29.76 in 10.0 mi NE 6.9 mph - N/A   Clear
5:53 AM 36.0 °F 30.3 °F 28.0 °F 73% 29.79 in 10.0 mi East 6.9 mph - N/A   Clear
6:53 AM 37.0 °F 29.8 °F 28.0 °F 70% 29.84 in 10.0 mi North 10.4 mph - N/A   Clear
7:53 AM 46.9 °F - 28.9 °F 50% 29.86 in 10.0 mi NW 4.6 mph - N/A   Clear
8:53 AM 54.0 °F - 30.0 °F 40% 29.87 in 10.0 mi SW 4.6 mph - N/A   Clear
9:53 AM 57.9 °F - 30.0 °F 35% 29.86 in 10.0 mi SSW 4.6 mph - N/A   Clear
10:53 AM 64.0 °F - 32.0 °F 30% 29.83 in 10.0 mi Variable 5.8 mph - N/A   Clear
11:53 AM 68.0 °F - 30.0 °F 24% 29.81 in 10.0 mi SSW 11.5 mph - N/A   Clear
12:53 PM 71.1 °F - 30.9 °F 23% 29.77 in 10.0 mi South 17.3 mph 23.0 mph N/A   Clear
1:53 PM 73.0 °F - 27.0 °F 18% 29.73 in 10.0 mi South 18.4 mph 29.9 mph N/A   Clear
2:53 PM 73.9 °F - 25.0 °F 16% 29.72 in 10.0 mi South 26.5 mph 32.2 mph N/A   Clear
3:53 PM 73.0 °F - 26.1 °F 17% 29.71 in 10.0 mi South 24.2 mph 32.2 mph N/A   Clear
4:53 PM 72.0 °F - 25.0 °F 17% 29.73 in 10.0 mi South 18.4 mph 27.6 mph N/A   Partly Cloudy
5:53 PM 68.0 °F - 23.0 °F 18% 29.76 in 10.0 mi South 17.3 mph 24.2 mph N/A   Clear
6:53 PM 62.1 °F - 24.1 °F 23% 29.78 in 10.0 mi South 16.1 mph - N/A   Clear
7:53 PM 57.0 °F - 25.0 °F 29% 29.80 in 10.0 mi SW 5.8 mph - N/A   Clear
8:53 PM 52.0 °F - 23.0 °F 32% 29.81 in 10.0 mi SW 5.8 mph - N/A   Clear
9:53 PM 52.0 °F - 21.9 °F 31% 29.83 in 10.0 mi SSE 6.9 mph - N/A   Partly Cloudy
10:53 PM 50.0 °F - 21.9 °F 33% 29.82 in 10.0 mi South 5.8 mph - N/A   Clear
11:53 PM 46.9 °F - 23.0 °F 39% 29.82 in 10.0 mi West 3.5 mph - N/A   Clear